Starlink 11365

operational
NORAD ID: 62886 Int'l Des: 2025-024 Owner: SPXS Country: US Constellation: starlink
LEOCIRCULAR

关于 Starlink 11365

正在加载描述...

实时位置

正在加载3D地球...

即将过境

高度历史

Altitude vs Time

uPlot chart will show altitude changes over time

两行轨道根数

1 62886U 25024H 25305.52924620 .00270113 00000-0 20297-2 0 9994
2 62886 43.0015 233.6637 0003962 275.6014 84.4402 15.70966448 43313
Epoch: Nov 1, 2025 • Age: 25 hours

当前状态

高度 354.8 km
速度 7.70 km/s
星下点 20.81°N, 10.68°E
发射日期 Feb 4, 2025
运行时间 0.7 years
类型 internet

技术详情

分类 Payload
质量 960.00 kg
干质量 910.00 kg
总质量 960.00 kg
长度 0.30 m
直径 4.10 m
跨度 29.00 m
形状 Box + pan
制造商 SPXS
平台类型 Starlink V2MD
阶段状态 In Orbit
所有者/国家 SPXS/US

大型星座

Loading constellations...